Tracking 28052 objects as of 22-Sep-2023
HD Live streaming from Space Station
objects crossing your sky now

BSAT-2C

Track BSAT-2C now!
BSAT-2C is classified as:


NORAD ID: 27830
Int'l Code: 2003-028A
Perigee: 36,080.2 km
Apogee: 36,112.4 km
Inclination: 7.9 °
Period: 1,451.6 minutes
Semi major axis: 42467 km
RCS: 12.6191 m2 (large)
Launch date: June 11, 2003
Source: Japan (JPN)
Launch site: FRENCH GUIANA (FRGUI)

Backup to BSAT-2A; direct digital broadcasts to homes in Japan and neighboring countries through its Ku-band transponders.
Your satellite tracking list
Your tracking list is empty




NASA's NSSDC Master Catalog

Two Line Element Set (TLE):
1 27830U 03028A   23265.15329515  .00000000  00000-0  00000+0 0  9991
2 27830   7.9202  60.8903 0003800 237.8097 319.1742  0.99202127 73914
Source of the keplerian elements: AFSPC